EJU14WG LPPR-LSGG

Flight info

Callsign EJU14WG
Flight time N/A
Altitude 30000
Route BELDU DCT ADORO L155 ZMR N976 DGO T429 TOPTU DCT TOU DCT GAI DCT MEN DCT NINUN UN871 LTP UZ116 BELUS
Aircraft A320/M-SDE3FGHIRWY/LB1

Departure

Time N/A
Airport Francisco de Sá Carneiro Airport (LPPR)

Arrival

Time 2026-05-04 11:39
Airport Geneva International Airport (LSGG)
Time Latitude Longitude Altitude Speed Heading
2026-05-04 11:17 45.35359 5.07623 28523 ft 491 kts 63°
2026-05-04 11:17 45.36954 5.11864 27943 ft 482 kts 63°
2026-05-04 11:19 45.47593 5.40067 23898 ft 447 kts 57°
2026-05-04 11:19 45.49560 5.43477 23405 ft 445 kts 46°
2026-05-04 11:19 45.51921 5.46319 22920 ft 444 kts 35°
2026-05-04 11:19 45.54545 5.48590 22482 ft 441 kts 30°
2026-05-04 11:20 45.57195 5.50780 22055 ft 438 kts 30°
2026-05-04 11:20 45.59821 5.52958 21674 ft 436 kts 31°
2026-05-04 11:20 45.62433 5.55133 21280 ft 434 kts 31°
2026-05-04 11:20 45.65036 5.57303 20901 ft 431 kts 31°
2026-05-04 11:22 45.83137 5.71718 18496 ft 420 kts 29°
2026-05-04 11:22 45.85693 5.73744 18138 ft 418 kts 31°
2026-05-04 11:23 45.88031 5.76168 17768 ft 414 kts 43°
2026-05-04 11:23 45.89968 5.79201 17399 ft 409 kts 55°
2026-05-04 11:24 46.00027 5.96559 15376 ft 363 kts 46°
2026-05-04 11:25 46.01806 5.99119 15084 ft 361 kts 46°
2026-05-04 11:25 46.03577 6.01672 14796 ft 359 kts 46°
2026-05-04 11:25 46.05336 6.04215 14507 ft 357 kts 46°
2026-05-04 11:26 46.08828 6.09266 13929 ft 353 kts 46°
2026-05-04 11:27 46.20324 6.26288 11757 ft 321 kts 47°
2026-05-04 11:28 46.21880 6.28576 11465 ft 317 kts 47°
2026-05-04 11:28 46.23421 6.30827 11170 ft 314 kts 47°
2026-05-04 11:28 46.24955 6.33069 10860 ft 312 kts 47°
2026-05-04 11:28 46.26478 6.35297 10539 ft 310 kts 47°
2026-05-04 11:29 46.27985 6.37506 10221 ft 308 kts 47°
2026-05-04 11:29 46.29478 6.39702 9907 ft 304 kts 48°
2026-05-04 11:29 46.30932 6.41844 9563 ft 292 kts 48°
2026-05-04 11:29 46.32319 6.43897 9221 ft 279 kts 48°
2026-05-04 11:31 46.42312 6.53493 7060 ft 255 kts 335°
2026-05-04 11:33 46.43533 6.40037 7057 ft 233 kts 224°
2026-05-04 11:33 46.42396 6.38351 6644 ft 238 kts 224°
2026-05-04 11:33 46.41221 6.36606 6024 ft 242 kts 224°
2026-05-04 11:34 46.40066 6.34891 5602 ft 233 kts 225°
2026-05-04 11:34 46.38960 6.33251 5282 ft 222 kts 225°
2026-05-04 11:34 46.37910 6.31696 4996 ft 212 kts 225°
2026-05-04 11:34 46.36904 6.30207 4719 ft 199 kts 225°
2026-05-04 11:35 46.35986 6.28848 4475 ft 181 kts 225°
2026-05-04 11:35 46.35103 6.27544 4222 ft 180 kts 225°
2026-05-04 11:35 46.34224 6.26245 3979 ft 180 kts 225°
2026-05-04 11:35 46.33352 6.24957 3746 ft 177 kts 225°
2026-05-04 11:36 46.32527 6.23740 3518 ft 161 kts 225°
2026-05-04 11:36 46.31752 6.22596 3314 ft 160 kts 225°
2026-05-04 11:36 46.30976 6.21451 3104 ft 158 kts 225°
2026-05-04 11:36 46.30214 6.20328 2888 ft 158 kts 225°
2026-05-04 11:37 46.29478 6.19243 2698 ft 144 kts 225°
2026-05-04 11:37 46.28792 6.18233 2500 ft 142 kts 226°
2026-05-04 11:37 46.28092 6.17201 2298 ft 141 kts 226°
2026-05-04 11:37 46.27400 6.16188 2107 ft 140 kts 226°
2026-05-04 11:38 46.26709 6.15165 1915 ft 141 kts 226°
2026-05-04 11:38 46.26025 6.14150 1716 ft 139 kts 226°
2026-05-04 11:38 46.25337 6.13145 1515 ft 142 kts 227°
2026-05-04 11:38 46.24665 6.12159 1372 ft 130 kts 226°
2026-05-04 11:39 46.24159 6.11412 1374 ft 77 kts 225°
2026-05-04 11:39 46.23910 6.11075 1379 ft 26 kts 189°
2026-05-04 11:40 46.23726 6.11088 1386 ft 12 kts 189°
2026-05-04 11:41 46.23665 6.11023 1387 ft 11 kts 223°
2026-05-04 11:41 46.23609 6.10951 1391 ft 11 kts 221°
2026-05-04 11:41 46.23560 6.10873 1389 ft 10 kts 231°
2026-05-04 11:41 46.23512 6.10797 1391 ft 11 kts 224°
2026-05-04 11:42 46.23445 6.10698 1395 ft 17 kts 225°
2026-05-04 11:42 46.23365 6.10594 1399 ft 15 kts 222°
2026-05-04 11:42 46.23297 6.10492 1397 ft 14 kts 226°
2026-05-04 11:42 46.23230 6.10393 1396 ft 14 kts 225°
2026-05-04 11:43 46.23154 6.10364 1401 ft 11 kts 136°
2026-05-04 11:43 46.23110 6.10429 1401 ft 7 kts 136°
2026-05-04 11:43 46.23069 6.10481 1393 ft 8 kts 154°
2026-05-04 11:43 46.23028 6.10456 1397 ft 6 kts 219°
2026-05-04 11:44 46.22987 6.10407 1398 ft 7 kts 191°
2026-05-04 11:44 46.22959 6.10433 1396 ft 4 kts 136°
2026-05-04 11:44 46.22949 6.10449 1393 ft 2 kts 135°
2026-05-04 11:44 46.22945 6.10454 1393 ft 0 kts 135°